Regional Weather Roundup
Issued by NWS

Home | Current Version | Previous Version | Graphics & Text | Print | Product List | Glossary On
Versions: 1 2 3 4 5 6 7 8 9 10 11 12 13 14 15 16 17 18 19 20 21 22 23 24 25 26 27 28 29 30 31 32 33 34 35 36 37 38 39 40 41 42 43 44 45 46 47 48 49 50
000
ASUS43 KLSX 011359
RWRMO

WEATHER SUMMARY FOR MISSOURI
NATIONAL WEATHER SERVICE SPRINGFIELD MO
900 AM CDT MON SEP 01 2014

NOTE: "FAIR" INDICATES FEW OR NO CLOUDS BELOW 12,000 FEET WITH NO
       SIGNIFICANT WEATHER AND/OR OBSTRUCTIONS TO VISIBILITY.
       CURRENT SKY AND/OR WEATHER CONDITIONS ARE NOT AVAILABLE FOR
       CHILLICOTHE AND FARMINGTON.

MOZ001>031-035>038-043-044-053-054-011500-
...NORTHERN AND WESTERN MISSOURI...

CITY           SKY/WX    TMP DP  RH WIND       PRES   REMARKS
KANSAS CTY INT CLOUDY    66  65  96 SW14      29.87R
KANSAS C DTWN  CLOUDY    69  63  81 SW12      29.87R
ST JOSEPH      CLOUDY    68  65  90 SW9       29.86R
CHILLICOTHE      N/A     68  65  90 VRB3      29.87R
KIRKSVILLE     CLOUDY    67  65  93 W8        29.84R

$$
MOZ066>068-077>081-088>096-101>105-011500-
...SOUTHWEST MISSOURI...

CITY           SKY/WX    TMP DP  RH WIND       PRES   REMARKS
SPRINGFIELD    HVY RAIN  65  63  93 SE15      30.01S FOG
JOPLIN         CLOUDY    67  63  87 SE13      29.99F

$$
MOZ032>034-039>042-045>050-055>058-069>072-011500-
...CENTRAL MISSOURI...

CITY           SKY/WX    TMP DP  RH WIND       PRES   REMARKS
COLUMBIA       CLOUDY    69  65  86 S12       29.81R
JEFFERSON CITY CLOUDY    69  63  81 S9        29.82F
ROLLA          LGT RAIN  66  63  90 S17       29.91F
SEDALIA        CLOUDY    69  62  78 SW12      29.85R
OSAGE BEACH    CLOUDY    66  63  88 S14G22    29.91F

$$
MOZ051-052-059>065-011500-
...EAST CENTRAL MISSOURI...

CITY           SKY/WX    TMP DP  RH WIND       PRES   REMARKS
ST LOUIS INTL  CLOUDY    73  65  75 S13       29.85F
SPIRIT OF STL  CLOUDY    69  65  86 S21G26    29.76F
ST CHARLES     CLOUDY    72  64  76 SE21      29.75F

$$
MOZ072>076-082>087-097>100-106>115-011500-
...SOUTH CENTRAL AND SOUTHEAST MISSOURI...

CITY           SKY/WX    TMP DP  RH WIND       PRES   REMARKS
CAPE GIRARDEAU MOSUNNY   78  73  84 SW14      29.97F
FARMINGTON     CLOUDY    70  64  83 CALM      30.00F
POPLAR BLUFF   MOSUNNY   77  71  82 SW10G18   29.97F
WEST PLAINS    CLOUDY    69  63  81 NE3       30.05R

$$


USA.gov is the U.S. government's official web portal to all federal, state and local government web resources and services.